Location: Lourdes
(43.1000°N, 0.0500°W)
Time: 05:01:17
(UTC+00:00)

Lacrosse 5 rocket - Pass Details

Date: 30 November 2020
Orbit: 462 x 633 km, 57.0° (Epoch: 27 January)

Event Time Altitude Azimuth Distance (km) Brightness Sun altitude
Rises 18:26:13 0° 273° (W) 2,517 6.1 -21.3°
Reaches altitude 10° 18:29:01 10° 296° (WNW) 1,624 4.4 -21.8°
Maximum altitude 18:31:22 16° 337° (NNW) 1,283 3.3 -22.2°
Enters shadow 18:31:49 16° 346° (NNW) 1,296 3.2 -22.3°
